[[{"header":{"parameterUnit":"m.s-1","parameterCategory":1,"la1":30.2991,"la2":30.254,"lo1":-89.0895,"lo2":-89.0444,"dy":0.0017,"dx":0.0017,"nx":28,"ny":28,"refTime":"2025-08-08T09:00:00:Z","depth":0,"parameterNumber":2,"parameterNumberName":"U-component_of_WINDS"},"data":[0,0,0,0,0,0,0,0,0,0,0,0,0,0,0,0,0,0,0,0,0,0,0,0,0,0,0,0,0,0,0,0,0,0,0,0,0,0,0,0,0,0,0,0,0,0,0,0,0,0,0,0,0,0,0,0,0,0,-3.6169,-3.6171,0,-3.6329,-3.6331,-3.6332,-3.6304,-3.6301,-3.6298,-3.6295,-3.6467,-3.6474,-3.6481,0,0,0,0,0,0,0,0,0,0,0,0,0,-3.585,-3.5856,-3.6169,-3.6171,-3.6173,-3.6328,-3.6331,-3.6333,-3.6304,-3.6301,-3.6297,-3.6294,-3.6465,-3.6473,-3.6482,0,0,0,0,0,0,0,0,0,0,0,0,0,-3.5997,-3.5858,-3.6168,-3.6177,-3.6179,-3.6328,-3.6331,-3.6333,-3.6305,-3.6301,-3.6297,-3.6293,-3.6462,-3.6472,-3.6483,-3.6635,0,0,-3.6516,-3.6521,0,0,0,0,0,0,0,0,-3.5989,-3.6009,-3.6174,-3.6177,-3.618,-3.6292,-3.6281,-3.6435,-3.6306,-3.6258,-3.6295,-3.629,-3.6413,-3.6427,-3.6467,-3.6643,-3.6651,-3.6517,-3.6524,-3.6528,-3.6531,0,0,0,0,0,0,0,-3.5979,-3.6002,-3.6232,-3.6176,-3.618,-3.6177,-3.6193,-3.631,-3.6358,-3.6262,-3.626,-3.6279,-3.6414,-3.6457,-3.6471,-3.6653,-3.6517,-3.6527,-3.6533,-3.6537,-3.6969,-3.6974,0,0,0,0,0,0,-3.5964,-3.5994,-3.6227,-3.6237,-3.6072,-3.6186,-3.6204,-3.626,-3.6356,-3.6366,-3.6282,-3.6277,-3.644,-3.6458,-3.6477,-3.6665,-3.6528,-3.6538,-3.6545,-3.6964,-3.697,-3.6975,0,0,0,0,0,0,-3.5958,-3.5985,-3.6221,-3.6115,-3.6145,-3.6196,-3.6259,-3.6266,-3.6308,-3.6372,-3.6381,-3.6317,-3.6438,-3.6462,-3.6597,-3.667,-3.6543,-3.6553,-3.6958,-3.6966,-3.6973,-3.704,0,0,0,0,0,0,-3.5949,-3.5983,-3.6039,-3.6116,-3.615,-3.6335,-3.6264,-3.6272,-3.6326,-3.6321,-3.6406,-3.6417,-3.6436,-3.6581,-3.6608,-3.6683,-3.6562,-3.6952,-3.6962,-3.697,-3.7031,-3.7049,-3.7064,0,0,0,0,0,-3.5937,-3.6052,-3.6041,-3.607,-3.622,-3.6339,-3.6359,-3.6377,-3.6332,-3.6391,-3.6432,-3.6414,-3.6658,-3.6595,-3.6625,-3.6704,-3.6947,-3.6959,-3.697,-3.7024,-3.7045,-3.7063,0,0,0,0,0,0,-3.5983,-3.6062,-3.6051,-3.6194,-3.626,-3.6334,-3.6408,-3.6398,-3.648,-3.6471,-3.6493,-3.6513,-3.6651,-3.6691,-3.662,-3.686,-3.6797,-3.6815,-3.6828,-3.6849,-3.6864,-3.6853,-3.6571,0,0,0,0,0,-3.6009,-3.6096,-3.6162,-3.6281,-3.6315,-3.6356,-3.6408,-3.6416,-3.6487,-3.6515,-3.6566,-3.6638,-3.6731,-3.6792,-3.6881,-3.7037,-3.7058,-3.7107,-3.7123,-3.7136,-3.7152,-3.7243,-3.7266,-3.7012,-3.7012,-3.7012,0,0,-3.6065,-3.6119,-3.6173,-3.6292,-3.6344,-3.6438,-3.6379,-3.648,-3.6551,-3.6531,-3.6662,-3.6703,-3.6785,-3.6932,-3.7,-3.697,-3.7227,-3.715,-3.716,-3.7169,-3.7256,-3.728,-3.7302,-3.702,-3.7018,-3.7017,0,0,-3.6215,-3.6263,-3.6369,-3.6423,-3.6503,-3.653,-3.6556,-3.6633,-3.6658,-3.679,-3.6779,-3.6865,-3.7024,-3.7084,-3.7135,-3.7313,-3.7301,-3.7342,-3.7426,-3.7514,-3.7534,-3.7552,-3.7619,-3.7643,-3.7357,-3.7357,-3.7357,0,-3.6275,-3.6412,-3.6426,-3.6529,-3.6584,-3.6569,-3.6681,-3.6733,-3.6839,-3.6879,-3.6843,-3.7045,-3.7099,-3.7263,-3.7306,-3.7347,-3.7381,-3.7332,-3.753,-3.7548,-3.7565,-3.7629,-3.7654,-3.7362,-3.7361,-3.7361,-3.736,0,-3.6484,-3.658,-3.6657,-3.6758,-3.6822,-3.6928,-3.6962,-3.7026,-3.703,-3.7062,-3.72,-3.7264,-3.7368,-3.7407,-3.7412,-3.7574,-3.7553,-3.7524,-3.7461,-3.7593,-3.7654,-3.7679,-3.7368,-3.7366,-3.7365,-3.7364,0,0,-3.6665,-3.6774,-3.6803,-3.6851,-3.6939,-3.7015,-3.7124,-3.7223,-3.7279,-3.7354,-3.7448,-3.7585,-3.7559,-3.7618,-3.763,-3.7707,-3.7849,-3.7669,-3.7671,-3.7703,-3.8036,-3.8059,-3.8087,-3.7841,-3.7846,-3.785,-3.803,0,-3.6825,-3.7012,-3.7031,-3.72,-3.7292,-3.7282,-3.7377,-3.7444,-3.7479,-3.7565,-3.7604,-3.7701,-3.7658,-3.7694,-3.777,-3.7815,-3.7917,-3.7802,-3.7933,-3.7938,-3.7914,-3.8118,-3.8142,-3.8309,-3.8054,-3.8058,-3.8061,0,-3.7036,-3.7116,-3.7294,-3.7374,-3.7413,-3.7498,-3.7593,-3.7674,-3.7752,-3.7772,-3.7839,-3.7843,-3.7959,-3.7892,-3.8055,-3.7977,-3.8032,-3.8064,-3.8071,-3.8085,-3.8008,-3.814,-3.8362,-3.8388,-3.8098,-3.8095,-3.8092,0,-3.7154,-3.7306,-3.7434,-3.7475,-3.757,-3.7631,-3.7674,-3.7747,-3.7808,-3.7893,-3.7933,-3.8031,-3.8085,-3.8163,-3.8195,-3.8142,-3.8358,-3.8292,-3.8382,-3.8382,-3.8428,-3.8425,-3.8664,-3.8461,-3.846,-3.846,-3.8459,0,-3.7332,-3.7442,-3.7488,-3.7567,-3.7692,-3.7715,-3.7839,-3.788,-3.7947,-3.8037,-3.8035,-3.812,-3.8156,-3.8248,-3.8274,-3.8408,-3.8432,-3.8455,-3.8461,-3.8456,-3.8453,-3.8493,-3.8483,-3.8467,-3.8465,-3.8464,-3.8463,0,-3.7484,-3.7519,-3.7658,-3.7738,-3.7761,-3.785,-3.792,-3.7999,-3.8033,-3.8147,-3.8176,-3.8231,-3.834,-3.8379,-3.8511,-3.8529,-3.8686,-3.8681,-3.8659,-3.866,-3.8749,-3.8741,-3.9023,-3.9063,-3.8831,-3.8833,-3.8835,0,-3.7596,-3.7681,-3.777,-3.7829,-3.7874,-3.7969,-3.8031,-3.8058,-3.8123,-3.8221,-3.8289,-3.8397,-3.8485,-3.866,-3.8715,-3.8818,-3.8817,-3.8909,-3.8832,-3.8827,-3.8822,-3.8817,-3.8828,-3.8924,-3.8926,-3.8928,-3.8929,0,-3.7792,-3.7806,-3.7893,-3.7989,-3.8062,-3.8139,-3.8214,-3.8263,-3.8303,-3.8377,-3.8487,-3.8555,-3.8692,-3.8801,-3.8907,-3.8956,-3.8952,-3.8953,-3.898,-3.8977,-3.8961,-3.8974,-3.87,-3.8947,-3.8945,-3.8944,-3.8943,-3.8942,-3.793,-3.8006,-3.8082,-3.8181,-3.824,-3.8311,-3.8389,-3.8434,-3.8526,-3.8637,-3.8649,-3.8769,-3.8851,-3.8992,-3.9047,-3.9144,-3.9119,-3.9157,-3.9167,-3.9177,-3.9185,-3.8945,-3.9163,-3.9163,-3.9163,-3.9162,-3.9162,0,-3.8128,-3.8176,-3.8267,-3.8372,-3.8452,-3.8438,-3.8521,-3.859,-3.8695,-3.877,-3.8856,-3.8986,-3.9093,-3.9157,-3.9265,-3.9331,-3.9333,-3.9359,-3.9356,-3.9368,-3.9199,-3.9166,-3.9357,-3.9357,-3.9357,-3.9357,-3.9357,-3.9357,-3.824,-3.837,-3.8394,-3.8555,-3.8604,-3.872,-3.877,-3.8837,-3.8897,-3.9042,-3.913,-3.917,-3.9242,-3.9357,-3.9456,-3.9472,-3.9514,-3.9543,-3.9558,-3.9399,-3.9379,-3.936,-3.933,-3.9551,-3.9552,-3.9719,-3.9721,-3.9722]},{"header":{"parameterUnit":"m.s-1","parameterCategory":1,"la1":30.2991,"la2":30.254,"lo1":-89.0895,"lo2":-89.0444,"dy":0.0017,"dx":0.0017,"nx":28,"ny":28,"refTime":"2025-08-08T09:00:00:Z","depth":0,"parameterNumber":3,"parameterNumberName":"V-component_of_WINDS"},"data":[0,0,0,0,0,0,0,0,0,0,0,0,0,0,0,0,0,0,0,0,0,0,0,0,0,0,0,0,0,0,0,0,0,0,0,0,0,0,0,0,0,0,0,0,0,0,0,0,0,0,0,0,0,0,0,0,0,0,1.9158,1.9157,0,1.9083,1.9082,1.9081,1.9069,1.907,1.9071,1.9071,1.8987,1.8984,1.8981,0,0,0,0,0,0,0,0,0,0,0,0,0,1.9282,1.928,1.9158,1.9157,1.9156,1.9083,1.9082,1.9081,1.9069,1.907,1.9071,1.9072,1.8988,1.8984,1.8981,0,0,0,0,0,0,0,0,0,0,0,0,0,1.9219,1.9279,1.9158,1.9141,1.9139,1.9083,1.9082,1.9081,1.9069,1.907,1.9071,1.9072,1.8989,1.8985,1.8981,1.8934,0,0,1.8967,1.8965,0,0,0,0,0,0,0,0,1.9223,1.9215,1.9145,1.9142,1.914,1.9087,1.9095,1.9031,1.9069,1.9095,1.9071,1.9072,1.9019,1.9012,1.8996,1.893,1.8926,1.8967,1.8964,1.8962,1.8961,0,0,0,0,0,0,0,1.9227,1.9218,1.9128,1.9144,1.9141,1.9135,1.9127,1.9083,1.9052,1.9093,1.9092,1.9084,1.9017,1.9,1.8993,1.8925,1.8967,1.8963,1.8961,1.8959,1.8814,1.8813,0,0,0,0,0,0,1.9236,1.9222,1.913,1.9126,1.9185,1.9132,1.9123,1.9102,1.9053,1.9046,1.9083,1.9084,1.9007,1.8999,1.899,1.893,1.8963,1.8958,1.8956,1.8815,1.8814,1.8812,0,0,0,0,0,0,1.9238,1.9228,1.9133,1.9173,1.9161,1.9129,1.9105,1.91,1.9083,1.9045,1.9039,1.9071,1.9007,1.8997,1.8948,1.8927,1.8957,1.8953,1.8817,1.8815,1.8813,1.8811,0,0,0,0,0,0,1.9242,1.9229,1.9213,1.9173,1.9159,1.9094,1.9104,1.9098,1.9076,1.9076,1.9032,1.9026,1.9007,1.8954,1.8944,1.8922,1.8949,1.8818,1.8816,1.8814,1.8813,1.8809,1.8806,0,0,0,0,0,1.9247,1.9214,1.9212,1.9201,1.9138,1.9093,1.9085,1.9066,1.9075,1.9057,1.9032,1.9027,1.8932,1.895,1.8937,1.8914,1.8819,1.8816,1.8814,1.8814,1.881,1.8806,0,0,0,0,0,0,1.9249,1.9208,1.9206,1.916,1.913,1.9091,1.9068,1.9063,1.9028,1.9029,1.9006,1.8996,1.8948,1.8926,1.8946,1.8865,1.8876,1.887,1.888,1.8876,1.8873,1.8878,1.8946,0,0,0,0,0,1.9245,1.9214,1.9179,1.9142,1.9127,1.91,1.908,1.9069,1.9036,1.9023,1.8995,1.8961,1.8923,1.8899,1.8862,1.881,1.8798,1.8788,1.8785,1.8782,1.8777,1.8745,1.8739,1.8803,1.8803,1.8803,0,0,1.9234,1.9208,1.919,1.9142,1.9117,1.9083,1.909,1.9054,1.9027,1.9016,1.8969,1.8947,1.8908,1.8857,1.8833,1.8837,1.8757,1.8779,1.8777,1.8773,1.8741,1.8735,1.873,1.8801,1.8801,1.8802,0,0,1.9198,1.9176,1.9142,1.9118,1.9082,1.9065,1.9056,1.9018,1.9004,1.8957,1.8947,1.8914,1.885,1.8822,1.8799,1.8752,1.8745,1.8741,1.8723,1.8692,1.8687,1.8682,1.8663,1.8656,1.8736,1.8736,1.8736,0,1.9188,1.914,1.9124,1.9089,1.9066,1.9058,1.9021,1.8998,1.895,1.8934,1.8941,1.886,1.8833,1.8774,1.8762,1.8745,1.8732,1.8744,1.869,1.8685,1.868,1.8661,1.8654,1.8736,1.8736,1.8736,1.8736,0,1.9129,1.9095,1.9071,1.9028,1.9003,1.8967,1.8944,1.892,1.8911,1.8891,1.8841,1.8809,1.8765,1.8751,1.874,1.8689,1.8693,1.8695,1.8705,1.8674,1.8655,1.8648,1.8735,1.8735,1.8735,1.8735,0,0,1.909,1.904,1.9031,1.9011,1.8971,1.8942,1.8905,1.8864,1.8843,1.8811,1.8776,1.8723,1.8724,1.8699,1.8685,1.8659,1.862,1.8663,1.8662,1.8654,1.8558,1.8555,1.8547,1.8616,1.8615,1.8613,1.856,0,1.9047,1.8982,1.8967,1.891,1.8877,1.8868,1.8835,1.8805,1.8786,1.8753,1.8731,1.8692,1.8699,1.8683,1.8656,1.863,1.86,1.8634,1.858,1.8578,1.8588,1.8538,1.8534,1.8486,1.8553,1.8552,1.8551,0,1.8987,1.8956,1.8897,1.886,1.8845,1.8816,1.8776,1.8746,1.8711,1.8699,1.867,1.8659,1.8617,1.8631,1.857,1.8594,1.8571,1.8555,1.8553,1.8544,1.8561,1.8525,1.847,1.8462,1.854,1.8541,1.8542,0,1.8962,1.8905,1.8861,1.8845,1.8801,1.878,1.8761,1.8727,1.8703,1.8668,1.8651,1.8611,1.8588,1.8555,1.8533,1.8546,1.8472,1.8486,1.8458,1.8458,1.8441,1.8441,1.8378,1.8431,1.8431,1.8431,1.8431,0,1.8914,1.8877,1.8849,1.8822,1.878,1.8762,1.872,1.8699,1.867,1.8636,1.8626,1.8594,1.8568,1.8531,1.8513,1.8464,1.8454,1.844,1.8435,1.844,1.8441,1.8422,1.8424,1.8429,1.8429,1.843,1.843,0,1.8877,1.8858,1.8809,1.8773,1.8763,1.8733,1.87,1.8671,1.8653,1.861,1.8599,1.8569,1.8525,1.85,1.8445,1.8433,1.8377,1.8375,1.8389,1.8387,1.8359,1.8361,1.8279,1.8266,1.833,1.833,1.8329,0,1.8846,1.8818,1.8779,1.8757,1.8738,1.8703,1.8678,1.8659,1.8634,1.8592,1.8568,1.8525,1.8489,1.842,1.839,1.8347,1.8342,1.8317,1.8335,1.834,1.8338,1.8339,1.8335,1.8312,1.8312,1.8311,1.8311,0,1.8793,1.8784,1.8751,1.8715,1.8687,1.8656,1.8626,1.8607,1.8583,1.8554,1.8511,1.8484,1.8428,1.8384,1.8339,1.8316,1.8307,1.8306,1.8297,1.8299,1.8307,1.8299,1.8377,1.8307,1.8307,1.8308,1.8308,1.8308,1.8756,1.8729,1.8698,1.8661,1.8636,1.8608,1.8579,1.8558,1.8522,1.8477,1.8468,1.8421,1.8385,1.8324,1.8299,1.8261,1.8265,1.8252,1.8248,1.8245,1.8242,1.8317,1.8253,1.8253,1.8253,1.8253,1.8253,0,1.8699,1.8679,1.8645,1.8603,1.8573,1.8573,1.8539,1.8512,1.8473,1.8441,1.8407,1.8356,1.8313,1.8281,1.8236,1.8211,1.8206,1.82,1.82,1.8194,1.8243,1.8254,1.8204,1.8204,1.8204,1.8204,1.8204,1.8204,1.8666,1.8621,1.8609,1.855,1.8529,1.8486,1.8466,1.8438,1.8413,1.8357,1.8323,1.8303,1.827,1.8223,1.8182,1.8174,1.8156,1.815,1.814,1.8185,1.8191,1.8195,1.8206,1.8147,1.8147,1.8094,1.8093,1.8093]}]]